contact:dominique.lefevre@mio.osupytheas.fr, maurice.libes@osupytheas.fr, didier.mallarino@osupytheas.fr
Project:EMSO http://www.emso-fr.org/EMSO-France
Depth: 2436.0 m
Title:EMSO Ligure Ouest : Data MII capteur AQUADOPP
Date,Latitude,Longitude,X_East,Y_North,Z_Up,Amplitude_X,Amplitude_Y,Amplitude_Z,Batterie,SoundSpeed,Heading,Pitch,Roll,Pressure,TIS,Speed,Direction
, degrees North, degrees East, m.s-1, m.s-1,m.s-1, 1, 1, 1, Volt, m.s-1, degree, degree, degree, dbar, degree_C, m.s-1, degree
2019-09-18T00:09:04,42.805,6.029,0.007,0.001,0.029,102.0,104.0,100.0,13.3,1505.2,327.3,-0.7,1.8,2470.125,13.3,0.007,81.9
2019-09-18T00:12:05,42.805,6.029,0.016,-0.013,-0.019,102.0,104.0,98.0,13.3,1505.3,328.0,-0.7,1.8,2470.093,13.31,0.02,129.1
2019-09-18T00:15:06,42.805,6.029,-0.01,-0.011,-0.015,101.0,105.0,98.0,13.4,1505.3,328.5,-0.7,1.8,2470.163,13.32,0.014,222.3
2019-09-18T00:18:07,42.805,6.029,0.017,0.002,-0.002,101.0,105.0,98.0,13.3,1505.3,325.5,-0.7,1.9,2470.094,13.32,0.017,83.3
2019-09-18T00:21:08,42.805,6.029,0.005,-0.013,-0.01,103.0,103.0,99.0,13.4,1505.3,325.0,-0.7,1.8,2470.075,13.32,0.013,159.0
2019-09-18T00:24:09,42.805,6.029,-0.006,-0.016,-0.016,100.0,104.0,99.0,13.4,1505.3,325.8,-0.7,1.8,2470.106,13.33,0.017,200.6
2019-09-18T00:27:10,42.805,6.029,-0.038,-0.016,-0.042,101.0,104.0,99.0,13.4,1505.3,325.0,-0.7,1.8,2470.107,13.33,0.041,247.2
2019-09-18T00:30:11,42.805,6.029,0.0,-0.004,0.017,102.0,107.0,98.0,13.4,1505.3,324.7,-0.7,1.8,2470.076,13.33,0.004,180.0
2019-09-18T00:33:12,42.805,6.029,-0.008,-0.029,-0.017,101.0,104.0,98.0,13.4,1505.3,327.8,-0.7,1.8,2470.054,13.33,0.03,195.4
2019-09-18T00:36:13,42.805,6.029,-0.013,0.004,-0.001,101.0,104.0,97.0,13.3,1505.3,326.6,-0.7,1.9,2470.057,13.33,0.013,287.1
2019-09-18T00:39:14,42.805,6.029,-0.006,0.006,-0.011,101.0,104.0,98.0,13.3,1505.3,328.0,-0.7,1.9,2470.031,13.33,0.008,315.0
2019-09-18T00:42:15,42.805,6.029,-0.005,-0.004,-0.013,100.0,104.0,98.0,13.4,1505.3,325.0,-0.7,1.9,2470.006,13.33,0.006,231.3
2019-09-18T00:45:16,42.805,6.029,0.003,-0.01,0.007,101.0,104.0,98.0,13.3,1505.3,327.2,-0.7,1.8,2470.026,13.33,0.01,163.3
2019-09-18T00:48:17,42.805,6.029,-0.024,-0.028,-0.031,101.0,104.0,100.0,13.3,1505.3,326.7,-0.7,1.9,2470.051,13.33,0.036,220.6
2019-09-18T00:51:18,42.805,6.029,-0.006,-0.013,0.005,102.0,104.0,98.0,13.4,1505.3,327.9,-0.7,1.8,2470.036,13.33,0.014,204.8
2019-09-18T00:54:19,42.805,6.029,0.005,-0.003,-0.026,100.0,105.0,99.0,13.4,1505.3,326.6,-0.7,1.8,2470.013,13.33,0.005,121.0
2019-09-18T00:57:20,42.805,6.029,-0.015,-0.013,-0.022,102.0,102.0,98.0,13.4,1505.3,323.1,-0.7,1.8,2469.973,13.33,0.019,229.1
2019-09-18T01:00:21,42.805,6.029,-0.037,-0.011,-0.003,101.0,104.0,98.0,13.4,1505.3,326.5,-0.7,1.8,2470.041,13.33,0.038,253.4
2019-09-18T01:03:22,42.805,6.029,0.058,-0.023,0.037,100.0,104.0,99.0,13.4,1505.3,328.4,-0.7,1.8,2470.013,13.33,0.062,111.6
2019-09-18T01:06:23,42.805,6.029,0.015,-0.018,-0.001,102.0,104.0,99.0,13.3,1505.3,324.4,-0.7,1.9,2469.996,13.33,0.023,140.2
2019-09-18T01:09:24,42.805,6.029,0.002,-0.015,0.006,102.0,104.0,99.0,13.4,1505.3,327.1,-0.7,1.9,2470.006,13.33,0.015,172.4
2019-09-18T01:12:25,42.805,6.029,-0.008,-0.009,-0.008,102.0,106.0,99.0,13.3,1505.3,324.3,-0.7,1.8,2470.007,13.33,0.012,221.6
2019-09-18T01:15:26,42.805,6.029,0.043,-0.003,0.021,101.0,105.0,99.0,13.3,1505.3,326.6,-0.7,1.8,2470.038,13.33,0.043,94.0
2019-09-18T01:18:27,42.805,6.029,0.044,-0.02,0.034,103.0,102.0,99.0,13.4,1505.3,325.7,-0.7,1.8,2470.024,13.33,0.048,114.4
2019-09-18T01:21:28,42.805,6.029,0.044,0.013,0.034,101.0,104.0,98.0,13.4,1505.3,328.1,-0.7,1.8,2470.029,13.33,0.045,73.5
2019-09-18T01:24:29,42.805,6.029,-0.016,-0.04,-0.033,101.0,105.0,99.0,13.4,1505.3,325.9,-0.7,1.8,2469.984,13.33,0.043,201.8
2019-09-18T01:27:30,42.805,6.029,-0.046,-0.001,-0.017,100.0,104.0,98.0,13.4,1505.3,326.2,-0.7,1.8,2470.018,13.33,0.046,268.8
2019-09-18T01:30:31,42.805,6.029,-0.011,-0.012,0.002,103.0,105.0,98.0,13.4,1505.3,326.1,-0.7,1.8,2469.974,13.33,0.016,222.5
2019-09-18T01:33:32,42.805,6.029,-0.029,-0.038,-0.054,103.0,104.0,99.0,13.4,1505.3,325.5,-0.7,1.9,2469.986,13.33,0.047,217.3
2019-09-18T01:36:33,42.805,6.029,-0.01,-0.027,-0.009,102.0,105.0,98.0,13.3,1505.3,326.4,-0.7,1.8,2469.909,13.33,0.028,200.3
2019-09-18T01:39:34,42.805,6.029,-0.012,-0.029,-0.002,103.0,103.0,98.0,13.4,1505.3,326.0,-0.7,1.9,2469.98,13.33,0.031,202.5
2019-09-18T01:42:35,42.805,6.029,-0.01,0.003,-0.014,100.0,105.0,98.0,13.3,1505.3,324.9,-0.7,1.8,2469.989,13.33,0.01,286.7
2019-09-18T01:45:36,42.805,6.029,0.007,-0.017,-0.014,102.0,105.0,98.0,13.4,1505.3,328.1,-0.7,1.8,2470.02,13.33,0.018,157.6
2019-09-18T01:48:37,42.805,6.029,0.02,-0.023,-0.012,102.0,105.0,99.0,13.3,1505.3,323.6,-0.7,1.8,2469.989,13.33,0.03,139.0
2019-09-18T01:51:38,42.805,6.029,0.003,-0.024,-0.019,102.0,104.0,99.0,13.3,1505.3,325.4,-0.7,1.8,2469.996,13.33,0.024,172.9
2019-09-18T01:54:39,42.805,6.029,-0.023,-0.005,-0.008,99.0,106.0,100.0,13.4,1505.3,323.5,-0.7,1.8,2470.003,13.33,0.023,257.7
2019-09-18T01:57:40,42.805,6.029,0.027,-0.015,0.009,100.0,105.0,99.0,13.3,1505.3,327.3,-0.7,1.8,2469.99,13.33,0.03,119.1
2019-09-18T02:00:41,42.805,6.029,0.004,0.0,-0.004,101.0,107.0,99.0,13.4,1505.3,326.6,-0.7,1.8,2469.981,13.33,0.004,90.0
2019-09-18T02:03:42,42.805,6.029,0.008,-0.032,0.019,103.0,105.0,99.0,13.4,1505.3,325.6,-0.7,1.9,2469.967,13.33,0.032,166.0
2019-09-18T02:06:43,42.805,6.029,0.023,0.0,0.017,102.0,104.0,99.0,13.4,1505.3,325.0,-0.7,1.8,2469.937,13.33,0.023,90.0
2019-09-18T02:09:44,42.805,6.029,-0.005,-0.023,0.015,102.0,104.0,97.0,13.3,1505.3,323.1,-0.7,1.8,2469.999,13.33,0.023,192.3
2019-09-18T02:12:45,42.805,6.029,0.016,-0.031,0.009,103.0,105.0,99.0,13.4,1505.3,325.2,-0.7,1.8,2469.997,13.33,0.034,152.7
2019-09-18T02:15:46,42.805,6.029,0.012,-0.013,-0.036,105.0,106.0,98.0,13.3,1505.3,327.0,-0.7,1.8,2469.94,13.33,0.017,137.3
2019-09-18T02:18:47,42.805,6.029,0.028,-0.023,0.032,102.0,104.0,99.0,13.4,1505.3,325.4,-0.7,1.9,2469.937,13.33,0.036,129.4
2019-09-18T02:21:48,42.805,6.029,0.002,-0.028,0.008,102.0,106.0,98.0,13.3,1505.3,327.3,-0.7,1.8,2469.963,13.33,0.028,175.9
2019-09-18T02:24:49,42.805,6.029,0.014,-0.021,0.008,101.0,106.0,99.0,13.3,1505.3,326.6,-0.7,1.8,2469.971,13.33,0.025,146.3
2019-09-18T02:27:50,42.805,6.029,0.018,-0.006,0.0,100.0,104.0,99.0,13.4,1505.3,325.8,-0.7,1.8,2469.99,13.33,0.018,108.4
2019-09-18T02:30:51,42.805,6.029,-0.006,0.002,0.014,99.0,106.0,99.0,13.4,1505.3,327.2,-0.7,1.9,2470.013,13.33,0.006,288.4
2019-09-18T02:33:52,42.805,6.029,0.013,-0.02,0.027,100.0,106.0,97.0,13.4,1505.3,327.0,-0.7,1.8,2470.009,13.33,0.023,147.0
2019-09-18T02:36:53,42.805,6.029,0.009,-0.016,0.011,100.0,106.0,100.0,13.4,1505.3,325.6,-0.7,1.8,2469.965,13.33,0.018,150.6
2019-09-18T02:39:54,42.805,6.029,-0.002,-0.013,0.011,101.0,105.0,98.0,13.4,1505.3,326.7,-0.7,1.8,2469.972,13.33,0.013,188.7
2019-09-18T02:42:55,42.805,6.029,0.001,-0.021,0.012,103.0,105.0,98.0,13.4,1505.3,326.0,-0.7,1.9,2469.939,13.33,0.021,177.3
2019-09-18T02:45:56,42.805,6.029,-0.006,-0.015,0.003,100.0,104.0,99.0,13.4,1505.3,326.9,-0.7,1.8,2469.956,13.33,0.016,201.8
2019-09-18T02:48:57,42.805,6.029,0.022,-0.022,0.009,104.0,104.0,102.0,13.4,1505.3,324.9,-0.7,1.8,2470.013,13.33,0.031,135.0
2019-09-18T02:51:58,42.805,6.029,0.025,-0.011,0.021,100.0,105.0,98.0,13.4,1505.3,323.6,-0.7,1.8,2469.936,13.33,0.027,113.7
2019-09-18T02:54:59,42.805,6.029,0.009,-0.019,-0.01,102.0,105.0,99.0,13.3,1505.3,323.7,-0.7,1.8,2469.93,13.33,0.021,154.7
2019-09-18T02:58:00,42.805,6.029,0.011,-0.031,0.011,102.0,105.0,98.0,13.4,1505.3,327.8,-0.7,1.8,2469.957,13.33,0.032,160.5
2019-09-18T03:01:01,42.805,6.029,-0.001,-0.024,0.001,102.0,105.0,98.0,13.4,1505.3,326.6,-0.7,1.8,2469.983,13.33,0.024,182.4
2019-09-18T03:04:02,42.805,6.029,-0.017,-0.001,-0.025,101.0,105.0,98.0,13.4,1505.3,327.2,-0.7,1.8,2469.944,13.33,0.017,266.6
2019-09-18T03:07:03,42.805,6.029,-0.017,-0.028,-0.051,102.0,103.0,98.0,13.3,1505.3,328.4,-0.7,1.8,2469.946,13.33,0.032,211.3
2019-09-18T03:10:04,42.805,6.029,-0.014,-0.011,0.006,102.0,103.0,98.0,13.4,1505.3,324.7,-0.8,1.8,2469.93,13.33,0.017,231.8
2019-09-18T03:13:05,42.805,6.029,-0.008,-0.029,-0.031,101.0,103.0,98.0,13.4,1505.3,327.5,-0.7,1.8,2469.936,13.33,0.03,195.4
2019-09-18T03:16:06,42.805,6.029,-0.041,-0.012,-0.034,101.0,105.0,98.0,13.4,1505.3,327.4,-0.7,1.8,2469.927,13.33,0.042,253.7
2019-09-18T03:19:07,42.805,6.029,-0.018,-0.024,0.007,101.0,104.0,99.0,13.4,1505.3,328.3,-0.7,1.8,2469.97,13.33,0.03,216.9
2019-09-18T03:22:08,42.805,6.029,-0.027,-0.023,-0.036,103.0,104.0,98.0,13.4,1505.3,328.0,-0.7,1.8,2469.926,13.33,0.035,229.6
2019-09-18T03:25:09,42.805,6.029,-0.007,-0.029,-0.03,103.0,107.0,99.0,13.4,1505.3,325.4,-0.7,1.8,2469.926,13.33,0.029,193.6
2019-09-18T03:28:10,42.805,6.029,-0.004,-0.02,0.002,102.0,104.0,99.0,13.4,1505.3,327.6,-0.7,1.9,2469.962,13.33,0.02,191.3
2019-09-18T03:31:11,42.805,6.029,-0.029,-0.024,-0.022,103.0,106.0,99.0,13.4,1505.3,327.9,-0.7,1.9,2469.932,13.33,0.037,230.4
2019-09-18T03:34:12,42.805,6.029,-0.016,-0.023,-0.038,101.0,104.0,100.0,13.4,1505.3,325.4,-0.7,1.8,2469.951,13.33,0.028,214.8
2019-09-18T03:37:13,42.805,6.029,-0.017,-0.018,0.001,102.0,104.0,100.0,13.4,1505.3,326.8,-0.7,1.9,2469.957,13.33,0.024,223.4
2019-09-18T03:40:14,42.805,6.029,-0.004,-0.006,-0.008,102.0,109.0,98.0,13.3,1505.3,328.3,-0.7,1.8,2469.936,13.33,0.007,213.7
2019-09-18T03:43:15,42.805,6.029,-0.004,-0.013,0.006,100.0,106.0,99.0,13.4,1505.3,324.7,-0.7,1.8,2469.941,13.33,0.013,197.1
2019-09-18T03:46:16,42.805,6.029,-0.021,-0.03,0.011,101.0,104.0,98.0,13.3,1505.3,325.8,-0.7,1.8,2469.913,13.33,0.036,215.0
2019-09-18T03:49:17,42.805,6.029,-0.002,-0.043,0.0,100.0,104.0,99.0,13.3,1505.3,323.6,-0.7,1.8,2469.955,13.33,0.043,182.7
2019-09-18T03:52:18,42.805,6.029,0.001,-0.021,-0.011,103.0,103.0,99.0,13.4,1505.3,327.8,-0.7,1.8,2469.916,13.33,0.021,177.3
2019-09-18T03:55:19,42.805,6.029,0.009,-0.021,-0.006,101.0,106.0,99.0,13.4,1505.3,325.5,-0.7,1.9,2469.992,13.33,0.022,156.8
2019-09-18T03:58:20,42.805,6.029,-0.023,-0.037,-0.027,103.0,104.0,99.0,13.3,1505.3,325.2,-0.7,1.8,2469.948,13.33,0.043,211.9
2019-09-18T04:01:21,42.805,6.029,-0.022,-0.041,-0.029,101.0,105.0,100.0,13.3,1505.3,326.4,-0.7,1.8,2469.932,13.33,0.046,208.2
2019-09-18T04:04:22,42.805,6.029,-0.004,-0.02,-0.021,101.0,105.0,99.0,13.3,1505.3,328.3,-0.7,1.8,2469.969,13.33,0.02,191.3
2019-09-18T04:07:23,42.805,6.029,0.009,-0.036,-0.012,102.0,103.0,100.0,13.3,1505.3,327.2,-0.7,1.8,2469.921,13.33,0.037,166.0
2019-09-18T04:10:24,42.805,6.029,0.005,-0.017,0.03,102.0,104.0,98.0,13.4,1505.3,323.6,-0.7,1.8,2469.932,13.33,0.017,163.6
2019-09-18T04:13:25,42.805,6.029,0.017,-0.012,0.044,102.0,105.0,99.0,13.4,1505.3,325.4,-0.7,1.8,2469.943,13.33,0.02,125.2
2019-09-18T04:16:26,42.805,6.029,0.027,-0.018,0.034,100.0,105.0,98.0,13.4,1505.3,325.0,-0.7,1.8,2469.958,13.33,0.032,123.7
2019-09-18T04:19:27,42.805,6.029,0.01,-0.023,0.017,101.0,105.0,99.0,13.4,1505.3,328.3,-0.7,1.8,2469.955,13.33,0.025,156.5
2019-09-18T04:22:28,42.805,6.029,-0.025,-0.013,-0.018,102.0,105.0,98.0,13.4,1505.3,325.2,-0.7,1.8,2469.929,13.33,0.028,242.5
2019-09-18T04:25:29,42.805,6.029,0.009,-0.017,0.026,100.0,105.0,99.0,13.3,1505.3,327.9,-0.7,1.8,2469.917,13.33,0.019,152.1
2019-09-18T04:28:30,42.805,6.029,-0.018,-0.024,-0.037,102.0,104.0,99.0,13.4,1505.3,326.3,-0.7,1.8,2469.94,13.33,0.03,216.9
2019-09-18T04:31:31,42.805,6.029,0.004,-0.029,-0.001,102.0,105.0,98.0,13.3,1505.3,323.8,-0.7,1.8,2469.95,13.33,0.029,172.2
2019-09-18T04:34:32,42.805,6.029,-0.009,-0.015,0.011,101.0,105.0,99.0,13.3,1505.3,325.4,-0.7,1.8,2469.967,13.33,0.017,211.0
2019-09-18T04:37:33,42.805,6.029,-0.037,-0.016,-0.044,102.0,104.0,98.0,13.4,1505.3,325.2,-0.7,1.8,2469.936,13.33,0.04,246.6
2019-09-18T04:40:34,42.805,6.029,-0.036,-0.045,-0.026,100.0,104.0,99.0,13.4,1505.3,324.9,-0.7,1.8,2469.95,13.33,0.057,218.7
2019-09-18T04:43:35,42.805,6.029,-0.014,-0.02,-0.019,102.0,104.0,100.0,13.4,1505.3,328.4,-0.7,1.8,2469.932,13.33,0.024,215.0
2019-09-18T04:46:36,42.805,6.029,0.017,-0.023,0.028,101.0,105.0,98.0,13.3,1505.3,326.0,-0.7,1.8,2469.997,13.33,0.028,143.5
2019-09-18T04:49:37,42.805,6.029,0.002,-0.018,0.008,102.0,104.0,99.0,13.4,1505.3,325.6,-0.7,1.9,2469.937,13.33,0.018,173.7
2019-09-18T04:52:38,42.805,6.029,0.006,-0.014,0.012,100.0,105.0,100.0,13.4,1505.3,324.3,-0.7,1.9,2469.931,13.33,0.015,156.8
2019-09-18T04:55:39,42.805,6.029,-0.008,0.002,0.038,100.0,104.0,99.0,13.4,1505.3,324.9,-0.7,1.8,2469.968,13.33,0.008,284.0
2019-09-18T04:58:40,42.805,6.029,0.008,-0.013,-0.004,101.0,103.0,99.0,13.4,1505.3,326.4,-0.7,1.9,2469.964,13.33,0.015,148.4
2019-09-18T05:01:41,42.805,6.029,-0.025,-0.019,0.01,101.0,104.0,99.0,13.4,1505.3,323.2,-0.7,1.8,2469.934,13.33,0.031,232.8
2019-09-18T05:04:42,42.805,6.029,-0.01,-0.019,-0.007,101.0,104.0,99.0,13.4,1505.3,325.3,-0.7,1.8,2469.94,13.33,0.021,207.8
2019-09-18T05:07:43,42.805,6.029,0.004,-0.024,0.013,105.0,105.0,99.0,13.3,1505.3,325.2,-0.7,1.8,2469.959,13.33,0.024,170.5
2019-09-18T05:10:44,42.805,6.029,0.013,-0.043,-0.009,102.0,104.0,100.0,13.4,1505.3,326.1,-0.7,1.8,2469.945,13.33,0.044,163.2
2019-09-18T05:13:45,42.805,6.029,-0.017,-0.041,-0.013,101.0,103.0,99.0,13.4,1505.3,323.8,-0.7,1.9,2469.952,13.33,0.044,202.5
2019-09-18T05:16:46,42.805,6.029,-0.032,-0.018,-0.031,101.0,104.0,99.0,13.4,1505.3,328.4,-0.7,1.8,2469.958,13.33,0.036,240.6
2019-09-18T05:19:47,42.805,6.029,0.001,0.001,-0.042,102.0,104.0,99.0,13.4,1505.3,325.4,-0.7,1.8,2470.001,13.33,0.001,45.0
2019-09-18T05:22:48,42.805,6.029,-0.007,-0.017,-0.003,101.0,102.0,99.0,13.3,1505.3,324.7,-0.7,1.9,2469.982,13.33,0.018,202.4
2019-09-18T05:25:49,42.805,6.029,-0.003,-0.018,0.018,101.0,103.0,98.0,13.4,1505.3,328.0,-0.7,1.8,2469.984,13.33,0.018,189.5
2019-09-18T05:28:50,42.805,6.029,-0.007,-0.03,-0.023,102.0,104.0,100.0,13.4,1505.3,326.8,-0.7,1.9,2469.934,13.33,0.03,193.1
2019-09-18T05:31:51,42.805,6.029,-0.012,-0.019,-0.004,102.0,103.0,99.0,13.4,1505.3,325.5,-0.7,1.8,2469.975,13.33,0.022,212.3
2019-09-18T05:34:52,42.805,6.029,0.0,-0.04,0.0,101.0,103.0,99.0,13.4,1505.3,324.9,-0.7,1.8,2469.972,13.33,0.04,180.0
2019-09-18T05:37:53,42.805,6.029,-0.012,-0.024,-0.012,102.0,104.0,98.0,13.4,1505.3,324.7,-0.7,1.8,2469.988,13.33,0.026,206.6
2019-09-18T05:40:54,42.805,6.029,-0.01,-0.013,0.0,101.0,104.0,99.0,13.4,1505.3,324.9,-0.7,1.8,2469.976,13.33,0.016,217.6
2019-09-18T05:43:55,42.805,6.029,-0.026,-0.024,0.01,102.0,103.0,99.0,13.4,1505.3,326.1,-0.8,1.9,2469.974,13.33,0.035,227.3
2019-09-18T05:46:56,42.805,6.029,-0.011,-0.021,-0.012,101.0,103.0,99.0,13.3,1505.3,323.1,-0.7,1.9,2469.973,13.33,0.023,207.6
2019-09-18T05:49:57,42.805,6.029,-0.027,-0.015,-0.011,99.0,103.0,97.0,13.3,1505.3,326.3,-0.7,1.8,2469.991,13.33,0.03,240.9
2019-09-18T05:52:58,42.805,6.029,-0.02,-0.01,-0.031,101.0,102.0,99.0,13.4,1505.3,326.6,-0.7,1.8,2470.001,13.33,0.022,243.4
2019-09-18T05:55:59,42.805,6.029,-0.003,-0.028,0.029,103.0,103.0,100.0,13.3,1505.3,325.6,-0.7,1.8,2469.968,13.33,0.028,186.1
2019-09-18T05:59:00,42.805,6.029,-0.002,-0.013,0.007,100.0,103.0,99.0,13.4,1505.3,323.2,-0.7,1.8,2469.977,13.33,0.013,188.7
2019-09-18T06:02:01,42.805,6.029,0.014,-0.033,-0.006,101.0,102.0,98.0,13.4,1505.3,324.7,-0.7,1.8,2470.002,13.33,0.035,157.0
2019-09-18T06:05:02,42.805,6.029,0.01,-0.037,0.0,101.0,103.0,100.0,13.4,1505.3,326.4,-0.7,1.8,2469.997,13.33,0.038,164.9
2019-09-18T06:08:03,42.805,6.029,0.013,-0.028,0.011,101.0,104.0,98.0,13.4,1505.3,328.1,-0.7,1.8,2470.024,13.33,0.03,155.1
2019-09-18T06:11:04,42.805,6.029,-0.001,-0.032,0.013,100.0,103.0,99.0,13.4,1505.3,323.9,-0.7,1.8,2469.981,13.33,0.032,181.8
2019-09-18T06:14:05,42.805,6.029,0.0,-0.012,-0.006,103.0,106.0,98.0,13.3,1505.3,326.6,-0.7,1.9,2469.992,13.33,0.012,180.0
2019-09-18T06:17:06,42.805,6.029,-0.002,-0.007,0.0,101.0,105.0,100.0,13.4,1505.3,327.9,-0.7,1.8,2469.959,13.33,0.007,195.9
2019-09-18T06:20:07,42.805,6.029,-0.005,-0.025,0.014,103.0,105.0,99.0,13.4,1505.3,327.3,-0.7,1.8,2469.964,13.33,0.025,191.3
2019-09-18T06:23:08,42.805,6.029,-0.006,-0.019,0.003,101.0,103.0,99.0,13.4,1505.3,327.8,-0.7,1.9,2469.994,13.33,0.019,197.5
2019-09-18T06:26:09,42.805,6.029,-0.02,-0.016,-0.009,101.0,105.0,99.0,13.4,1505.3,325.8,-0.7,1.8,2470.011,13.33,0.025,231.3
2019-09-18T06:29:10,42.805,6.029,-0.019,-0.032,-0.038,101.0,104.0,97.0,13.4,1505.3,325.2,-0.7,1.8,2469.992,13.33,0.037,210.7
2019-09-18T06:32:11,42.805,6.029,-0.024,-0.03,-0.018,102.0,105.0,97.0,13.3,1505.3,324.6,-0.7,1.8,2470.045,13.33,0.038,218.7
2019-09-18T06:35:12,42.805,6.029,-0.002,-0.033,-0.012,101.0,104.0,100.0,13.4,1505.3,327.8,-0.7,1.8,2469.987,13.33,0.033,183.5
2019-09-18T06:38:13,42.805,6.029,-0.008,-0.03,-0.031,100.0,105.0,98.0,13.4,1505.3,325.3,-0.7,1.8,2470.016,13.33,0.031,194.9
2019-09-18T06:41:14,42.805,6.029,0.014,-0.009,-0.007,101.0,105.0,98.0,13.4,1505.3,327.0,-0.7,1.8,2469.995,13.33,0.016,122.7
2019-09-18T06:44:15,42.805,6.029,0.025,-0.026,-0.005,103.0,105.0,98.0,13.4,1505.3,324.0,-0.7,1.8,2470.009,13.33,0.036,136.1
2019-09-18T06:47:16,42.805,6.029,-0.001,-0.025,0.008,101.0,105.0,98.0,13.3,1505.3,325.4,-0.7,1.8,2469.989,13.33,0.025,182.3
2019-09-18T06:50:17,42.805,6.029,0.013,-0.007,-0.044,101.0,105.0,99.0,13.3,1505.3,326.3,-0.7,1.9,2470.041,13.33,0.014,118.3
2019-09-18T06:53:18,42.805,6.029,0.0,-0.015,0.045,100.0,106.0,99.0,13.3,1505.3,324.8,-0.7,1.8,2470.042,13.33,0.015,180.0
2019-09-18T06:56:19,42.805,6.029,0.017,-0.004,0.006,99.0,106.0,102.0,13.3,1505.3,323.9,-0.7,1.9,2470.017,13.33,0.017,103.2
2019-09-18T06:59:20,42.805,6.029,0.028,-0.023,0.021,100.0,108.0,98.0,13.4,1505.3,324.9,-0.7,1.9,2470.071,13.33,0.036,129.4
2019-09-18T07:02:21,42.805,6.029,0.033,-0.012,0.044,101.0,104.0,100.0,13.4,1505.3,323.8,-0.7,1.8,2470.06,13.33,0.035,110.0
2019-09-18T07:05:22,42.805,6.029,-0.008,-0.027,0.011,102.0,106.0,97.0,13.3,1505.3,326.7,-0.7,1.8,2470.06,13.33,0.028,196.5
2019-09-18T07:08:23,42.805,6.029,0.033,-0.008,0.049,101.0,105.0,98.0,13.3,1505.3,326.6,-0.7,1.8,2470.025,13.33,0.033,103.6
2019-09-18T07:11:24,42.805,6.029,-0.004,-0.034,-0.004,100.0,107.0,98.0,13.4,1505.3,323.7,-0.7,1.8,2470.058,13.33,0.034,186.7
2019-09-18T07:14:25,42.805,6.029,0.012,-0.01,0.016,103.0,105.0,99.0,13.3,1505.3,326.6,-0.7,1.8,2470.03,13.33,0.015,129.8
2019-09-18T07:17:26,42.805,6.029,0.012,-0.04,0.011,100.0,105.0,98.0,13.4,1505.3,327.7,-0.7,1.8,2470.068,13.33,0.041,163.3
2019-09-18T07:20:27,42.805,6.029,0.041,-0.008,0.036,101.0,106.0,98.0,13.4,1505.3,326.4,-0.7,1.9,2470.083,13.33,0.041,101.0
2019-09-18T07:23:28,42.805,6.029,0.018,-0.017,-0.007,101.0,106.0,98.0,13.4,1505.3,326.1,-0.7,1.8,2470.112,13.33,0.024,133.4
2019-09-18T07:26:29,42.805,6.029,0.009,-0.02,-0.02,101.0,105.0,99.0,13.4,1505.3,325.3,-0.7,1.8,2470.052,13.33,0.021,155.8
2019-09-18T07:29:30,42.805,6.029,0.027,-0.017,0.014,102.0,106.0,100.0,13.3,1505.3,324.5,-0.7,1.8,2470.048,13.33,0.031,122.2
2019-09-18T07:32:31,42.805,6.029,-0.024,-0.026,0.013,100.0,106.0,99.0,13.3,1505.3,325.4,-0.7,1.8,2470.103,13.33,0.035,222.7
2019-09-18T07:35:32,42.805,6.029,0.027,-0.018,0.026,100.0,105.0,98.0,13.4,1505.3,324.2,-0.7,1.8,2470.063,13.33,0.032,123.7
2019-09-18T07:38:33,42.805,6.029,-0.036,-0.027,-0.021,101.0,106.0,98.0,13.3,1505.3,324.2,-0.7,1.8,2470.068,13.33,0.045,233.1
2019-09-18T07:41:34,42.805,6.029,-0.012,-0.02,-0.005,101.0,106.0,99.0,13.4,1505.3,326.8,-0.7,1.8,2470.057,13.33,0.023,211.0
2019-09-18T07:44:35,42.805,6.029,-0.036,-0.021,-0.032,102.0,105.0,100.0,13.3,1505.3,328.1,-0.7,1.8,2470.105,13.33,0.041,239.7
2019-09-18T07:47:36,42.805,6.029,-0.057,-0.037,-0.066,102.0,105.0,98.0,13.4,1505.3,325.9,-0.7,1.8,2470.071,13.33,0.067,237.0
2019-09-18T07:50:37,42.805,6.029,-0.028,-0.025,0.006,100.0,106.0,99.0,13.4,1505.3,324.6,-0.7,1.8,2470.075,13.33,0.037,228.2
2019-09-18T07:53:38,42.805,6.029,-0.042,-0.03,-0.025,101.0,106.0,99.0,13.3,1505.3,326.8,-0.7,1.8,2470.058,13.33,0.051,234.5
2019-09-18T07:56:39,42.805,6.029,-0.049,-0.015,-0.027,101.0,105.0,99.0,13.4,1505.3,324.9,-0.7,1.8,2470.096,13.33,0.051,253.0
2019-09-18T07:59:40,42.805,6.029,-0.062,-0.004,-0.058,103.0,104.0,98.0,13.4,1505.3,323.5,-0.7,1.8,2470.095,13.33,0.062,266.3
2019-09-18T08:02:41,42.805,6.029,-0.032,-0.026,-0.055,101.0,106.0,99.0,13.3,1505.3,326.8,-0.7,1.8,2470.068,13.33,0.041,230.9
2019-09-18T08:05:42,42.805,6.029,-0.065,-0.029,-0.05,100.0,105.0,98.0,13.4,1505.4,327.4,-0.7,1.8,2470.062,13.34,0.071,246.0
2019-09-18T08:08:43,42.805,6.029,-0.061,-0.029,-0.078,102.0,104.0,98.0,13.3,1505.3,327.1,-0.7,1.8,2470.079,13.33,0.067,244.6
2019-09-18T08:11:44,42.805,6.029,-0.069,-0.03,-0.093,99.0,104.0,99.0,13.4,1505.3,324.5,-0.7,1.8,2470.091,13.33,0.075,246.5
2019-09-18T08:14:45,42.805,6.029,-0.073,-0.032,-0.047,101.0,105.0,99.0,13.4,1505.3,328.4,-0.7,1.8,2470.089,13.33,0.079,246.3
2019-09-18T08:17:46,42.805,6.029,-0.054,-0.02,-0.047,100.0,104.0,99.0,13.4,1505.3,324.9,-0.7,1.9,2470.115,13.33,0.057,249.7
2019-09-18T08:20:47,42.805,6.029,-0.051,-0.035,-0.044,99.0,105.0,98.0,13.4,1505.3,324.3,-0.7,1.8,2470.095,13.33,0.061,235.5
2019-09-18T08:23:48,42.805,6.029,-0.034,-0.028,-0.032,103.0,106.0,98.0,13.4,1505.3,323.5,-0.7,1.8,2470.089,13.33,0.044,230.5
2019-09-18T08:26:49,42.805,6.029,-0.058,-0.027,-0.01,100.0,105.0,98.0,13.4,1505.3,327.5,-0.7,1.8,2470.144,13.33,0.063,245.0
2019-09-18T08:29:50,42.805,6.029,-0.066,0.0,-0.041,102.0,104.0,98.0,13.4,1505.3,327.4,-0.7,1.9,2470.088,13.33,0.065,270.0
2019-09-18T08:32:51,42.805,6.029,-0.025,-0.021,-0.042,100.0,104.0,99.0,13.3,1505.3,322.6,-0.7,1.8,2470.082,13.33,0.032,230.0
2019-09-18T08:35:52,42.805,6.029,-0.046,-0.039,-0.067,102.0,106.0,97.0,13.4,1505.3,324.7,-0.7,1.8,2470.086,13.33,0.06,229.7
2019-09-18T08:38:53,42.805,6.029,-0.044,-0.033,-0.035,101.0,105.0,98.0,13.3,1505.3,324.1,-0.7,1.8,2470.089,13.33,0.055,233.1
2019-09-18T08:41:54,42.805,6.029,-0.025,-0.011,0.019,100.0,105.0,98.0,13.4,1505.3,323.5,-0.7,1.9,2470.152,13.33,0.027,246.3
2019-09-18T08:44:55,42.805,6.029,-0.051,-0.032,-0.048,103.0,104.0,97.0,13.4,1505.3,326.8,-0.7,1.8,2470.08,13.33,0.06,237.9
2019-09-18T08:47:56,42.805,6.029,-0.019,-0.038,-0.008,100.0,103.0,99.0,13.4,1505.3,325.9,-0.7,1.8,2470.104,13.33,0.042,206.6
2019-09-18T08:50:57,42.805,6.029,-0.039,-0.004,-0.039,101.0,103.0,99.0,13.4,1505.3,327.3,-0.7,1.8,2470.081,13.33,0.039,264.1
2019-09-18T08:53:58,42.805,6.029,-0.03,-0.042,-0.024,101.0,105.0,98.0,13.4,1505.3,326.3,-0.7,1.8,2470.112,13.33,0.051,215.5
2019-09-18T08:56:59,42.805,6.029,-0.034,-0.013,-0.02,102.0,105.0,98.0,13.3,1505.3,327.2,-0.7,1.8,2470.102,13.33,0.036,249.1
2019-09-18T09:00:00,42.805,6.029,-0.006,-0.048,0.017,101.0,104.0,98.0,13.4,1505.3,326.5,-0.7,1.8,2470.123,13.33,0.048,187.1
2019-09-18T09:03:01,42.805,6.029,0.011,-0.027,0.027,102.0,104.0,98.0,13.4,1505.3,326.6,-0.7,1.8,2470.082,13.33,0.029,157.8
2019-09-18T09:06:02,42.805,6.029,0.002,-0.032,-0.002,101.0,106.0,97.0,13.4,1505.3,325.6,-0.7,1.8,2470.106,13.33,0.032,176.4
2019-09-18T09:09:03,42.805,6.029,-0.006,-0.024,-0.015,101.0,106.0,97.0,13.3,1505.3,324.0,-0.7,1.8,2470.124,13.33,0.024,194.0
2019-09-18T09:12:04,42.805,6.029,-0.006,-0.007,-0.009,101.0,106.0,98.0,13.3,1505.3,324.3,-0.7,1.8,2470.079,13.33,0.009,220.6
2019-09-18T09:15:05,42.805,6.029,0.023,-0.006,0.033,103.0,105.0,98.0,13.4,1505.3,325.4,-0.7,1.8,2470.082,13.33,0.023,104.6
2019-09-18T09:18:06,42.805,6.029,-0.009,-0.013,0.036,102.0,105.0,99.0,13.4,1505.3,323.4,-0.7,1.8,2470.16,13.33,0.015,214.7
2019-09-18T09:21:07,42.805,6.029,0.033,-0.008,0.056,102.0,105.0,99.0,13.3,1505.3,324.4,-0.7,1.8,2470.116,13.33,0.033,103.6
2019-09-18T09:24:08,42.805,6.029,0.018,-0.012,0.034,102.0,105.0,97.0,13.4,1505.4,325.8,-0.7,1.8,2470.112,13.34,0.021,123.7
2019-09-18T09:27:09,42.805,6.029,0.04,-0.015,0.039,100.0,104.0,100.0,13.4,1505.4,325.3,-0.7,1.8,2470.105,13.34,0.042,110.6
2019-09-18T09:30:10,42.805,6.029,0.018,-0.026,0.007,100.0,106.0,98.0,13.3,1505.4,325.7,-0.7,1.8,2470.123,13.34,0.031,145.3
2019-09-18T09:33:11,42.805,6.029,-0.018,-0.025,-0.034,102.0,105.0,97.0,13.4,1505.4,324.4,-0.7,1.8,2470.116,13.34,0.03,215.8
2019-09-18T09:36:12,42.805,6.029,-0.007,-0.048,-0.006,100.0,107.0,98.0,13.4,1505.4,325.1,-0.7,1.8,2470.155,13.34,0.048,188.3
2019-09-18T09:39:13,42.805,6.029,-0.032,-0.031,-0.034,104.0,105.0,99.0,13.4,1505.4,324.8,-0.7,1.8,2470.113,13.34,0.044,225.9